This is the latest recevied weather packets stored in our database for station/object OE-11051. If no packets are shown the sender has not sent any weather packets the latest 10 day(s).
| Time | Temp. | Humidity | Pressure | Rain* | Wind** | Luminosity | Snow |
|---|---|---|---|---|---|---|---|
| 1787830880 | 27.78° C | 49% | 1013.4 hPa | 0 mm | - | 703 W/m² | - |
| 1787830506 | 27.78° C | 49% | 1013.4 hPa | 0 mm | - | 716 W/m² | - |
| 1787829906 | 27.78° C | 50% | 1013.7 hPa | 0 mm | - | 722 W/m² | - |
| 1787829080 | 27.22° C | 51% | 1013.6 hPa | 0 mm | - | 741 W/m² | - |
| 1787828707 | 26.67° C | 53% | 1013.7 hPa | 0 mm | - | 406 W/m² | - |
| 1787828107 | 26.67° C | 52% | 1013.6 hPa | 0 mm | - | 561 W/m² | - |
| 1787827279 | 26.67° C | 51% | 1013.8 hPa | 0 mm | - | 619 W/m² | - |
| 1787826906 | 27.22° C | 51% | 1014 hPa | 0 mm | - | 658 W/m² | - |
| 1787826307 | 26.67° C | 50% | 1014 hPa | 0 mm | - | 722 W/m² | - |
| 1787825480 | 26.11° C | 52% | 1014.1 hPa | 0 mm | - | 690 W/m² | - |
| 1787825107 | 25.56° C | 53% | 1014.2 hPa | 0 mm | - | 632 W/m² | - |
| 1787824507 | 25.56° C | 52% | 1014.2 hPa | 0 mm | - | 632 W/m² | - |
| 1787823680 | 25.56° C | 54% | 1014.1 hPa | 0 mm | - | 638 W/m² | - |
| 1787823307 | 25.56° C | 53% | 1014.1 hPa | 0 mm | - | 651 W/m² | - |
| 1787822706 | 24.44° C | 55% | 1014.3 hPa | 0 mm | - | 587 W/m² | - |
| 1787821880 | 24.44° C | 56% | 1014.3 hPa | 0 mm | - | 554 W/m² | - |
| 1787821506 | 23.89° C | 56% | 1014.5 hPa | 0 mm | - | 580 W/m² | - |
| 1787820907 | 23.89° C | 56% | 1014.3 hPa | 0 mm | - | 490 W/m² | - |
| 1787820080 | 23.89° C | 57% | 1014.4 hPa | 0 mm | - | 496 W/m² | - |
| 1787819707 | 23.89° C | 57% | 1014.5 hPa | 0 mm | - | 496 W/m² | - |
| 1787819107 | 23.33° C | 58% | 1014.5 hPa | 0 mm | - | 503 W/m² | - |
| 1787818280 | 23.33° C | 60% | 1014.5 hPa | 0 mm | - | 484 W/m² | - |
| 1787817906 | 22.78° C | 60% | 1014.7 hPa | 0 mm | - | 464 W/m² | - |
| 1787817306 | 22.78° C | 61% | 1014.6 hPa | 0 mm | - | 438 W/m² | - |
| 1787816479 | 22.22° C | 63% | 1014.8 hPa | 0 mm | - | 432 W/m² | - |
* Rain latest hour (hover to see other rain measurements)
** Current wind speed in m/s (hover to see current wind gust speed)